Regional Weather Roundup
Issued by NWS Sterling, VA

Home | Current Version | Previous Version | Graphics & Text | Print | Product List | Glossary On
Versions: 1 2 3 4 5 6 7 8 9 10 11 12 13 14 15 16 17 18 19 20 21 22 23 24 25 26 27
000
ASUS41 KLWX 300310
RWRLWX

REGIONAL WEATHER ROUNDUP
NATIONAL WEATHER SERVICE BALTIMORE MD/WASHINGTON DC
1100 PM EDT FRI JUL 29 2016

Note: "FAIR" indicates few or no clouds below 12,000 feet
with no significant weather and/or obstructions to visibility.
 TC=TEMPERATURE CELSIUS

 * =Non NWS site. Station does not report precipitation (e.g. rain,
    snow, etc.), thunder, or fog.

DCZ001-MDZ009-015-VAZ040>042-051-053>054-300400-
WASHINGTON METRO

CITY           SKY/WX    TMP DP  RH WIND       PRES   REMARKS
WASHINGTON NAT FAIR      82  72  71 S7        29.93R
DULLES         FAIR      77  70  79 S3        29.94R
ANDREWS AFB    CLEAR     76  71  85 SW3       29.93R
FT BELVOIR     FAIR      74  72  93 SE1       29.93R
LEESBURG*      FAIR      77  75  94 SW7       29.95S
MANASSAS*      FAIR      73  73 100 SE3       29.94R
GAITHERSBURG*  CLEAR     72  68  88 CALM      29.98S

$$

MDZ006>007-011-014-300400-
BALTIMORE METRO

CITY           SKY/WX    TMP DP  RH WIND       PRES   REMARKS
BWI AIRPORT    CLEAR     77  73  87 CALM      29.93R
MD SCIENCE CTR   N/A     82  72  71 MISG      29.92R
MARTIN STATE   CLEAR     77  75  94 CALM      29.94R
ANNAPOLIS      PTCLDY    80  76  87 CALM      29.93R
FORT MEADE*    CLEAR     72  72 100 CALM      29.95R

$$

MDZ012-015-019>023-300400-
MARYLAND EASTERN SHORE

CITY           SKY/WX    TMP DP  RH WIND       PRES   REMARKS
OCEAN CITY     CLEAR     75  72  90 CALM      29.95R
SALISBURY      NOT AVBL
BAY BRIDGE AP* CLEAR     81  72  74 S3        29.93R
CAMBRIDGE*     CLEAR     73  72  94 CALM      29.93R
EASTON*        CLEAR     78  76  95 CALM      29.97R

$$

MDZ017>025-300400-
SOUTHERN MARYLAND

CITY           SKY/WX    TMP DP  RH WIND       PRES   REMARKS
PATUXENT RIVER PTCLDY    77  71  82 S3        29.93R
ST INIGOES     CLEAR     76  73  91 CALM      29.93R
LEONARDTOWN*     N/A     73  70  88 CALM      29.95

$$

MDZ003>005-300400-
NORTH CENTRAL MARYLAND

CITY           SKY/WX    TMP DP  RH WIND       PRES   REMARKS
FREDERICK*     CLEAR     72  72 100 SE3       29.96S
HAGERSTOWN APT CLEAR     81  69  67 S3        29.94S

$$

MDZ501>502-300400-
WESTERN MARYLAND

CITY           SKY/WX    TMP DP  RH WIND       PRES   REMARKS
OAKLAND*       PTCLDY    68  63  83 CALM      30.08S
CUMBERLAND*    CLEAR     75  72  88 CALM      30.00R

$$

VAZ025>031-300400-
SHENANDOAH VALLEY

CITY           SKY/WX    TMP DP  RH WIND       PRES   REMARKS
WINCHESTER*    FAIR      73  70  88 CALM      29.96S
FRONT ROYAL*   FAIR      73  72  94 S3        29.95R
LURAY*         FAIR      73  73 100 CALM      29.98R
NEW MARKET*    FAIR     N/A N/A N/A CALM      29.97R
STAUNTON*      FAIR      70  68  95 CALM      30.02R
WAYNESBORO*    FAIR      72  69  90 SW3       30.01R

$$

WVZ021-048>050-054>055-300400-
EASTERN WEST VIRGINIA PANHANDLE

CITY           SKY/WX    TMP DP  RH WIND       PRES   REMARKS
MARTINSBURG    FAIR      74  70  87 CALM      29.94R
PETERSBURG*    FAIR      71  69  96 CALM      29.98R

$$

VAZ036>039-050-300400-
CENTRAL FOOTHILLS

CITY           SKY/WX    TMP DP  RH WIND       PRES   REMARKS
CHARLOTTESVILL FAIR      76  70  82 SW3       29.96R
CULPEPER*      FAIR      73  73  99 CALM      29.96R
ORANGE*          N/A     73  73 100 CALM      29.98R
GORDONSVILLE*  FAIR      73  73  97 CALM      29.95S
WARRENTON*     FAIR      73  68  83 CALM      29.94R

$$

VAZ055>057-300400-
NORTH AND CENTRAL PIEDMONT

CITY           SKY/WX    TMP DP  RH WIND       PRES   REMARKS
FREDERICKSBRG* FAIR      77  75  96 CALM      29.94R
STAFFORD*      FAIR      73  72  96 CALM      29.98R FOG

$$

NCZ024-NYZ072-PAZ021-071-VAZ022-071-300400-
OTHER REGIONAL OBSERVATIONS

CITY           SKY/WX    TMP DP  RH WIND       PRES   REMARKS
NEW YORK CITY  CLEAR     78  68  71 CALM      29.94R
PHILADELPHIA   PTCLDY    78  72  81 SW7       29.94R
PITTSBURGH     MOCLDY    74  65  73 E3        29.97R
ROANOKE        FAIR      75  69  81 W5        30.01R
RICHMOND       FAIR      77  72  84 CALM      29.95R
RALEIGH        PTCLDY    78  71  79 CALM      29.97R

$$

ANZ530>537-300400-
MARINE OBSERVATIONS

STATION/POSITION TIME  TEMP    WIND        PRES
                       AIR SEA DIR/SP/G
                 (UTC) (F)     (DEG/KT/KT) (MB)
THOMAS PT LIGHT  0300   84 84  200/  8/  9 1014.8R
BALT KEY BRIDGE  0242          230/  2/  3 1013.3R
COVE POINT       0242          220/  5/  6 1014.0R
LEWISETTA        0242      87  210/  4/  5 1013.3R
SOLOMONS ISLAND  0248      85  200/  4/  4   N/A
PINEY POINT      0248          220/  6/  6   N/A

$$





USA.gov is the U.S. government's official web portal to all federal, state and local government web resources and services.